www.pogodaiklimat.ru

Погода и климат >> Архив погоды >> Россия >> Иркутская область >> Киренск


АРХИВ ПОГОДЫ в Киренске

Время (UTC), дата Ветер
(напр.,м/с)
 
Видим.   Явления Облачность Т
(С)
Тd
(С)
f
(%)
Тe
(С)
Тes
(С)
Комфортность P
(гПа)
Po
(гПа)
Тmin
(С)
Tmax
(С)
R
(мм)
R24
(мм)
S
(см)
12 12.08 ЮВ 1 50 км {ливн. осадки} 10/6 600 м
[Cb cap Ac trans Ci fib]
+17.3 +11.0 66 +18 +18 1006.6 976.7 +19.6 0.0
15 12.08 Ю 1 н/о 10/6 600 м
[Cb cap Ci fib]
+13.7 +8.8 72 +14 +14 1008.2 977.8
18 12.08 штиль 0 н/о дымка 5/3 600 м
[Sc diur, vesp Ci fib]
+8.6 +7.5 93 +8 +8 1009.3 978.3
21 12.08 СЗ 1 2000 м дымка {туман} 10/4 600 м
[Sc diur, vesp Ci fib]
+7.9 +7.0 94 +7 +7 1009.8 978.7
00 13.08 штиль 0 200 м туман ?/? +9.7 +8.9 95 +9 +9 1010.4 979.5 +6.1
03 13.08 С 2 50 км {туман} 8/5 600 м
[Cb cap Ac trans Ci fib]
+17.3 +10.1 63 +18 +21 1009.2 979.1
06 13.08 СВ 2 50 км {туман} 8/6 600 м
[Cb cap Ac trans Ci fib]
+21.8 +6.4 37 +23 +26 комфорт 1007.2 977.6
09 13.08 С 2 50 км 9/6 600 м
[Cb cap Ac trans Ci fib]
+21.3 +5.7 36 +22 +23 комфорт 1006.9 977.3
12 13.08 В 1 20 км 10/6 600 м
[Cb cap Ac lent Ci fib]
+18.5 +8.4 52 +20 +20 1008.0 978.1 +22.2
15 13.08 В 1 н/о 10/4 600 м
[Cb cap Ac trans Ci fib]
+15.7 +9.1 65 +16 +16 1009.2 979.0
18 13.08 С 2 н/о 10/6 600 м
[Cb cap Ac trans Ci fib]
+13.2 +9.1 76 +13 +13 1010.0 979.5
21 13.08 С 2 50 км 10/8 600 м
[Cb cap Ac As]
+12.4 +8.8 79 +12 +12 1010.3 979.8
00 14.08 СЗ 1 20 км слаб. ливневой дождь 10/8 600 м
[Cb cap Ac As]
+11.5 +9.8 89 +11 +11 1011.6 980.9 +11.1 3
03 14.08 СЗ 1 10 км слаб. ливневой дождь 10/8 300 м
[Cb cap Ac As]
+13.2 +10.4 83 +13 +14 1011.9 981.3
06 14.08 штиль 0 20 км {ливн. осадки} 10/10 600 м
[Cb cap]
+15.6 +9.5 67 +15 +15 1011.7 981.4
09 14.08 СВ 1 20 км 10/10 600 м
[Cb cap]
+17.1 +9.1 59 +18 +18 1011.5 981.4
12 14.08 ЮЗ 1 20 км слаб. ливневой дождь 10/10 600 м
[Cb cap]
+15.6 +11.7 78 +16 +16 1012.2 981.9 +18.0 0.4
15 14.08 штиль 0 н/о местами туман поземный {ливн. осадки} 8/3 600 м
[Sc diur, vesp Ci fib]
+11.1 +9.7 91 +10 +10 1013.5 982.7
18 14.08 штиль 0 н/о местами туман поземный {ливн. осадки} 10/6 600 м
[Sc diur, vesp Ci fib]
+10.1 +9.1 94 +9 +9 1014.4 983.4
21 14.08 З 1 500 м туман ?/? +6.9 +5.9 93 +6 +6 1015.1 983.7
00 15.08 штиль 0 2000 м дымка {туман} 10/0
[Ac trans Cs]
+10.4 +9.5 94 +10 +12 1015.5 984.6 +6.8 0.0
03 15.08 Ю 1 10 км дым 10/5 600 м
[Cb cap Ac trans Ci fib]
+17.5 +10.9 65 +19 +21 1014.4 984.2
06 15.08 Ю 1 4000 м мгла 10/3 600 м
[Cb cap Ac trans Cs]
+22.0 +10.8 49 +24 +28 комфорт 1013.0 983.4
09 15.08 З 2 4000 м мгла 10/3 600 м
[Cb cap Ac trans Cs]
+22.4 +10.8 48 +24 +26 комфорт 1012.0 982.4
12 15.08 ЮВ 2 4000 м гроза без осадков 10/8 600 м
[Cb cap Ac trans Ci fib]
+20.2 +10.2 53 +22 +22 комфорт 1012.4 982.6 +23.1
15 15.08 ЮВ 1 н/о слаб. ливневой дождь {гроза} 10/10 600 м
[Cb cap]
+14.0 +12.7 92 +14 +14 1014.5 984.0
18 15.08 С 1 н/о слаб. ливневой дождь {гроза} 10/10 600 м
[Cb cap]
+13.0 +12.0 94 +13 +13 1015.6 985.0
21 15.08 В 1 500 м туман ?/? +12.8 +11.9 94 +13 +13 1015.4 984.7
00 16.08 штиль 0 4000 м туман местами 10/0
[Ac trans Ci fib]
+13.4 +12.3 93 +13 +15 1015.9 985.3 +12.4 5
03 16.08 В 1 4000 м мгла 10/0
[Ac trans Ci fib]
+18.1 +12.3 69 +19 +26 1015.1 985.0
06 16.08 СВ 3 20 км дым 10/4 600 м
[Cu hum Ac trans Ci fib]
+22.4 +10.4 47 +24 +27 комфорт 1013.1 983.4
09 16.08 СЗ 1 50 км 10/4 600 м
[Cu med, cong Ac trans Ci fib]
+24.0 +9.3 39 +25 +26 комфорт 1011.8 982.4
12 16.08 СЗ 1 50 км 10/5 600 м
[Cb cap Ac trans Ci fib]
+15.9 +13.5 86 +17 +17 1013.3 983.0 +24.0
15 16.08 С 1 н/о 10/4 600 м
[Cb cap Ci fib]
+13.5 +11.3 87 +14 +14 1013.8 983.3
18 16.08 С 2 н/о 10/0
[Ac trans Ci fib]
+13.3 +11.4 88 +13 +13 1013.3 982.7
21 16.08 СЗ 2 4000 м дымка 10/6 1000 м
[Sc Ac trans Cs]
+11.7 +10.5 92 +10 +10 1013.3 982.5
00 17.08 СВ 2 4000 м мгла 10/4 600 м
[Cb cap Ac trans Cs]
+14.5 +11.7 83 +14 +15 1012.9 982.5 +11.7
03 17.08 СВ 3 4000 м мгла 10/10 600 м
[Cb cap]
+15.1 +10.4 73 +14 +14 1012.7 982.3
06 17.08 С 4 10 км дым 10/10 600 м
[Cb cap]
+16.7 +10.9 69 +16 +16 1011.7 981.5
09 17.08 С 2 10 км дым 10/4 600 м
[Sc diur, vesp Ac As]
+16.2 +10.8 70 +16 +17 1011.3 981.1
12 17.08 С 2 20 км дым 10/0
[Ac As]
+15.4 +10.9 75 +15 +15 1012.0 981.7 +17.2
15 17.08 С 2 н/о 10/4 600 м
[Cb cap Ac trans Ci fib]
+12.9 +10.5 85 +12 +12 1012.5 981.9
18 17.08 штиль 0 н/о 10/6 600 м
[Cb cap Ac As]
+12.9 +10.9 88 +12 +12 1012.0 981.4
21 17.08 штиль 0 4000 м дымка 10/8 600 м
[Cb cap Ac As]
+12.8 +11.4 91 +12 +12 1012.0 981.5
00 18.08 СЗ 1 4000 м мгла 10/8 600 м
[Cb cap Ac As]
+13.9 +11.3 84 +14 +14 1012.0 981.5 +12.7 0.1
03 18.08 З 2 10 км дым 10/10 600 м
[Cb cap]
+15.0 +10.9 76 +15 +15 1011.9 981.5
06 18.08 З 2 20 км 10/10 600 м
[Cb cap]
+16.0 +10.4 69 +16 +16 1011.3 981.1
09 18.08 штиль 0 20 км {ливн. осадки} 10/10 600 м
[Cb cap]
+15.2 +11.2 77 +15 +15 1011.3 981.0
12 18.08 штиль 0 20 км {ливн. осадки} 10/10 600 м
[Cb cap]
+14.6 +11.8 83 +14 +14 1011.2 980.9 +17.2 0.0
15 18.08 штиль 0 н/о 10/10 600 м
[Cb cap]
+13.2 +11.6 90 +13 +13 1011.5 981.0
18 18.08 Ю 1 н/о дымка 10/6
[Sc diur, vesp Ac As]
+12.0 +10.9 93 +12 +12 1011.4 980.8
21 18.08 штиль 0 4000 м дымка 10/6 600 м
[Sc diur, vesp Ac As]
+12.4 +11.1 92 +12 +12 1011.4 980.8
00 19.08 З 1 4000 м дымка {ливн. осадки} 10/4 600 м
[Sc diur, vesp Ac As]
+13.3 +11.6 89 +13 +14 1011.6 981.1 +12.0 0.3
03 19.08 штиль 0 10 км дым 10/8 600 м
[Cb cap Ac trans Ci fib]
+16.2 +11.3 73 +16 +17 1011.0 980.8
06 19.08 С 3 10 км слаб. ливневой дождь 10/8 600 м
[Cb cap Ac As]
+14.7 +12.3 86 +14 +14 1011.3 980.9

 

Местоположение метеостанции Киренск (Иркутская область, Россия): широта 57.77 долгота 108.00 высота над уровнем моря 258 м.

В архиве по умолчанию представлена погода в Киренске за последнюю неделю. Архивные данные за месяц целиком и за предыдущие месяцы, начиная с января 2011 года, Вы можете получить, выбрав интересующий диапазон дат из раскрывающегося списка и нажав кнопку "Ввод!".


*Определитесь, кто Вы:
робот инопланетянин человек

Внимание! Время в таблицах - всемирное. Для получения местного времени необходимо прибавить поправку, которая равна 8 ч.

Смотрите также архив погоды в соседних городах и на ближайших метеорологических станциях:

Погода в Токме (Иркутская область, Россия) (145 км)
Погода в Казачинске (Иркутская область, Россия) (163 км)
Погода в Усть-Куте (Иркутская область, Россия) (171 км)
Погода в Максимово (Иркутская область, Россия) (200 км)
Погода в Ике (Иркутская область, Россия) (201 км)
Погода в Даване (Бурятия, Россия) (230 км)
Погода в Орлинге (Иркутская область, Россия) (233 км)
Погода в Нижнеангарске (Бурятия, Россия) (239 км)
Погода в Преображенке (Иркутская область, Россия) (254 км)
Погода в Новой Игирме (Иркутская область, Россия) (256 км)

Пояснения к столбцам:

Ветер - указаны скорость ветра в м/с - средняя за 10 мин, порывы в срок и между сроками (в фигурных скобках) и направление, откуда дует ветер: С - северный, СВ - северо-восточный, В - восточный, ЮВ - юго-восточный, Ю - южный, ЮЗ - юго-западный, З - западный, СЗ - северо-западный.
Видимость - горизонтальная дальность видимости в метрах или километрах. При видимости от 1 до 10 км при отсутствии осадков обычно наблюдается дымка, при ухудшении видимости до 1 км и менее - туман. В сухую погоду видимость может ухудшаться дымом, пылью или мглою.
Явления - указаны атмосферные явления, наблюдавшиеся в срок или в последний час перед сроком; фигурными скобками обозначены явления, наблюдавшиеся между сроками (за 1-3 часа до срока); квадратными скобками обозначены град или гололедные отложения с указанием их диаметра в мм.
Облачность - указаны через наклонную черту общая и нижняя облачность в баллах и высота нижней границы облаков в метрах; квадратными скобками обозначены формы облаков: Ci - перистые, Cs - перисто-слоистые, Cc - перисто-кучевые, Ac - высококучевые, As - высокослоистые, Sc - слоисто-кучевые, Ns - слоисто-дождевые, Cu - кучевые, Cb - кучево-дождевые. Подробнее классификацию облаков см. в Атласе облаков (PDF).
T - Температура воздуха - температура, измеренная на высоте 2 м над землей.
Td - Температура точки росы - температура, при понижении до которой содержащийся в воздухе водяной пар достигнет насыщения.
f - Относительная влажность воздуха - влажноcть воздуха, измеренная на высоте 2 м над землей.
Te - Эффективная температура - температура, которую ощущает одетый по сезону человек в тени. Характеристика душности погоды. При расчете учитывается влияние влажности воздуха и скорости ветра на теплоощущения человека.
Tes - Эффективная температура на солнце - температура, которую ощущает человек, с поправкой на солнечный нагрев. Характеристика знойности погоды. Зависит от высоты солнца над горизонтом, облачности и скорости ветра. Ночью, в пасмурную погоду, а также при ветре 12 м/с и более поправка равна нулю.
P - Атмосферное давление - приведенное к уровню моря атмосферное давление.
Po - Атмосферное давление - измеренное на уровне метеостанции атмосферное давление.
Tmin - Минимальная температура - минимум температуры воздуха на высоте 2 м над землей.
Tmax - Максимальная температура - максимум температуры воздуха на высоте 2 м над землей.
R - Количество осадков - Количество выпавших осадков за период времени, мм. При наведении курсора мыши на число - период времени, за который выпало указанное количество осадков.
R24 - Количество осадков - Количество выпавших осадков за 24 часа, мм.
S - Снежный покров - Высота снежного покрова, см. При наведении курсора мыши на число - состояние снежного покрова и степень покрытия местности в баллах.